TimeMDT,TemperatureF,Dew PointF,Humidity,Sea Level PressureIn,VisibilityMPH,Wind Direction,Wind SpeedMPH,Gust SpeedMPH,PrecipitationIn,Events,Conditions,WindDirDegrees,DateUTC
12:53 AM,63.0,52.0,67,29.71,10.0,Calm,Calm,-,N/A,,Overcast,0,2013-08-24 06:53:00
1:53 AM,62.1,55.0,78,29.70,10.0,Variable,5.8,-,0.00,Rain,Light Rain,0,2013-08-24 07:53:00
2:53 AM,62.1,54.0,75,29.70,10.0,ESE,4.6,-,0.00,,Overcast,110,2013-08-24 08:53:00
3:53 AM,63.0,52.0,67,29.73,10.0,SSE,6.9,-,N/A,,Overcast,150,2013-08-24 09:53:00
4:53 AM,62.1,54.0,75,29.75,10.0,Calm,Calm,-,N/A,,Overcast,0,2013-08-24 10:53:00
5:53 AM,59.0,55.0,87,29.80,10.0,SSE,6.9,-,0.01,Rain,Light Rain,160,2013-08-24 11:53:00
6:53 AM,59.0,53.1,81,29.83,10.0,SSE,18.4,27.6,0.00,,Overcast,160,2013-08-24 12:53:00
7:53 AM,57.9,54.0,87,29.89,10.0,SSE,12.7,21.9,0.02,Rain,Light Rain,150,2013-08-24 13:53:00
8:53 AM,59.0,55.0,87,29.90,10.0,Calm,Calm,-,0.02,Rain,Light Rain,0,2013-08-24 14:53:00
9:53 AM,61.0,55.9,83,29.90,10.0,Calm,Calm,-,0.00,,Overcast,0,2013-08-24 15:53:00
10:53 AM,64.0,55.0,73,29.91,10.0,Calm,Calm,-,N/A,,Overcast,0,2013-08-24 16:53:00
11:53 AM,66.9,53.1,61,29.87,10.0,ENE,3.5,-,N/A,,Overcast,60,2013-08-24 17:53:00
12:53 PM,73.0,53.1,49,29.81,10.0,Variable,3.5,-,N/A,,Mostly Cloudy,0,2013-08-24 18:53:00
1:53 PM,75.0,50.0,41,29.78,10.0,East,8.1,-,N/A,,Mostly Cloudy,90,2013-08-24 19:53:00
2:53 PM,71.1,54.0,55,29.80,5.0,WNW,6.9,-,0.03,Rain,Rain,300,2013-08-24 20:53:00
3:03 PM,69.8,53.6,56,30.23,2.5,NNW,10.4,-,0.04,Rain,Rain,330,2013-08-24 21:03:00
3:11 PM,69.8,55.4,60,30.22,10.0,NNW,8.1,-,0.04,,Mostly Cloudy,330,2013-08-24 21:11:00
3:53 PM,72.0,55.9,57,29.76,10.0,North,8.1,-,0.04,,Mostly Cloudy,360,2013-08-24 21:53:00
4:39 PM,69.8,51.8,53,30.22,10.0,East,9.2,-,0.00,,Mostly Cloudy,80,2013-08-24 22:39:00
4:53 PM,69.1,54.0,58,29.78,10.0,East,11.5,-,0.00,Rain,Light Rain,80,2013-08-24 22:53:00
5:27 PM,66.2,55.4,68,30.22,10.0,SW,8.1,-,0.00,Rain-Thunderstorm,Light Rain,220,2013-08-24 23:27:00
5:39 PM,62.6,57.2,82,30.24,1.8,South,18.4,25.3,0.12,Rain-Thunderstorm,Heavy Thunderstorms and Rain,190,2013-08-24 23:39:00
5:51 PM,60.8,57.2,88,30.25,1.0,South,11.5,23.0,0.33,Rain,Heavy Rain,190,2013-08-24 23:51:00
5:53 PM,60.1,57.0,90,29.90,1.2,South,13.8,23.0,0.33,Rain,Heavy Rain,190,2013-08-24 23:53:00
5:57 PM,60.8,57.2,88,30.24,3.0,SSW,12.7,-,0.01,Rain,Light Rain,200,2013-08-24 23:57:00
6:53 PM,61.0,57.0,87,29.89,10.0,Calm,Calm,-,0.04,,Overcast,0,2013-08-25 00:53:00
7:53 PM,61.0,57.0,87,29.91,10.0,Calm,Calm,-,N/A,,Mostly Cloudy,0,2013-08-25 01:53:00
8:53 PM,60.1,57.9,93,29.93,10.0,Calm,Calm,-,N/A,,Mostly Cloudy,0,2013-08-25 02:53:00
9:53 PM,60.1,59.0,96,29.94,10.0,Calm,Calm,-,N/A,,Mostly Cloudy,0,2013-08-25 03:53:00
10:53 PM,60.1,57.9,93,29.92,10.0,Calm,Calm,-,N/A,,Mostly Cloudy,0,2013-08-25 04:53:00
11:53 PM,61.0,57.9,90,29.90,10.0,Calm,Calm,-,0.00,,Overcast,0,2013-08-25 05:53:00